STARLINK-35065, 65441

Orbit data source: Space-Track

STARLINK-35065, 65441 is a payload satellite owned by SpaceX/Seattle (US) in SSO that was launched on Wed, 03 Sep 2025 UTC via an FALCON 9 launch vehicle from the Air Force Western Test Range (AFWTR). Payload-class satellites include a variety of spacecraft equipped with specific instruments for various scientific and technological missions. These include communications satellites like Starlink; space stations such as the ISS; scientific satellites like the Hubble; Earth observation satellites from companies like Planet Labs, Umbra, and HawkEye 360; GPS; miniature CubeSats for education and research; and military/defense satellites.

Loading next visibility...
Identifier
65441, 2025-194H
Orbit
SSO
Country
Flag of USUS
Related business
Manufacturer
SpaceX/Seattle
Mission
Operational Commercial Communications
Bus & Motor
STARLINK V2MO, Unknown motor
Mass
575 kg wet, ~530 kg dry
Launch date (UTC)
2025-09-03 (10 months ago)
Launch vehicle
FALCON 9
Launch site
Air Force Western Test Range (AFWTR)
Object type
Payload
Rocket body
Debris
Shape & HBR
Box + 2 Pan, 17.7 m
Radar Cross Section
36.964 m², Large (>1 m²)

Expand to show TLE details & history
Last TLE update: 18 hours ago

TLE from 18 hours ago
0 STARLINK-35065
1 65441U 25194H   26171.09524845  .00003602  00000-0  25338-3 0  9990
2 65441  97.3422  24.1959 0001766  80.8621 279.2806 15.05660513 45054
Epoch: 2026-06-20T02:17Z
TLE epoch observation values (Epoch: 2026-06-20T02:17:09.466Z)
Latitude
-0.00002°
Longitude
81.59167°
Altitude
552.354 km
Speed
7.586 km/s
True Right ascension
01h 36m 47s
True Declination
0° 00' 00"
Sunlit
Object was in daylight at epoch
Visualization orbit readout
Latitude
Unknown
Longitude
Unknown
Altitude
Unknown
Speed
Unknown
Apparent Right ascension
Unknown
Apparent Declination
Unknown
Sunlit
N/A
Visualization observer readout
Local Sidereal Time
07:19:03
Azimuth
Unknown
Elevation
Unknown
Doppler factor
Unknown
Orbital elements
Apogee altitude
547.684 km
Perigee altitude
545.238 km
Semi-major axis
6,924.598 km
Eccentricity
0.00018
Inclination
97.3422°
RAAN
24.1959°
Arg. of periapsis
80.8621°
True anomaly
279.26063°
Mean anomaly
279.2806°
Eccentric anomaly
279.27061°
Mean motion
3.76662 °/min
Orbital period
95.58 mins
BSTAR
0.00025338
Loading maneuver chart data...
Computing Atmospheric mass density...
Loading historical data...
Loading historical data...
Loading historical data...
Loading historical data...
Loading historical data...
Loading historical data...
Loading historical data...

Documentation

Showing up to 5 results
|